Погода в Вологде

Хотите узнать прогноз погоды в Вологде? Тогда Вам сюда: Погода в Вологде

Поиск расширенной информации на нашем сайте:

Полезная информация:

Новости сайта



02.01.2020
Опубликован Долгосрочный прогноз погоды по городам России и ближнего зарубежья на январь 2020 года.
Карты: Прогноз на январь и февраль 2020 года, Сравнение прогнозируемой аномалии приземной температуры воздуха на январь 2020 года по разным моделям.




Погода в Вологде - сегодня

Время (UTC), дата Ветер
(°,м/с) 
Видим.   Явления Облачность Т
(°С)
Тd
(°С)
f(%) Тe
(°С)
Pmin
(гПа)
dP
(гПа)
Po
(мм)
O2
(г/м3)
Тmin Tmax R s Состояние
почвы
06 04.06.20 080 (В) 20000 м  в посл. час дождь  10/8 600 м средняя 
[Sc|As op]
+12.1 +8.9 81 +12  1008.1  -2.1  744  286  +11.3         
09 04.06.20 100 (В) 3{10}  20000 м  в посл. час дождь  10/8 700 м средняя 
[Sc|As op]
+14 +9.7 75 +15  1007.8  -0.2  744  284           
12 04.06.20 100 (В) 5{10}  10 км  слаб. дождь  10/8 300 м средняя 
[Frnb|As op]
+13.2 +10.8 85 +14  1007.4  -0.5  744  284           
15 04.06.20 090 (В) 10 км  слаб. дождь  10/10 300 м 
[Frnb|Ns]
+12.5 +10.9 90 +15  1006.9  -0.5  744  284    +15.1     
18 04.06.20 110 (В) 10 км  слаб. дождь  10/8 300 м средняя 
[Frnb|As op]
+12.9 +11.3 90 +16  1006.3  -0.6  743  284           
21 04.06.20 130 (ЮВ) 10 км  слаб. морось{дождь}  10/10 300 м 
[St]
+13 +11.7 92 +17  1005.5  -0.7  743  283           
00 05.06.20 150 (ЮВ) 4000 м  дымка{дождь, морось}  9/9 300 м 
[Sc]
+12.3 +10.9 91 +15  1006.2  0.6  743  284           
03 05.06.20 160 (Ю) 20000 м    4/4 600 м 
[Sc]
+12.9 +10.2 84 +15  1008  1.8  744  285  +11.9    0.7    влажная 
06 05.06.20 160 (Ю) 20000 м    9/8 600 м средняя 
[Cu Sc|Ac trans]
+15.1 +9.4 69 +16  1009.9  746  283           
09 05.06.20 160 (Ю) 20000 м    8/6 600 м верхняя 
[Cu hum|Ci fib]
+17.9 +9.1 56 +18  1011.3  1.5  747  281           
12 05.06.20 160 (Ю) 20000 м    8/6 600 м верхняя 
[Cu hum|Ci fib]
+20.9 +8.1 44 +21  1010.7  -0.4  747  278           
15 05.06.20 160 (Ю) 20000 м    9/9 600 м кучево-дожд. 
[Cb cap]
+21.3 +7.3 40 +21  1010.8  0.1  747  278    +22.1       
18 05.06.20 130 (ЮВ) 20000 м    8/6 600 м средняя 
[Sc|Ac trans]
+16.3 +8.8 61 +17  1012  0.9  747  283           
21 05.06.20 110 (В) 20000 м    3/3 2000 м средняя, верхняя 
[Ac trans|Ci fib]
+12 +9.2 83 +12  1012.3  0.1  748  287           
00 06.06.20 150 (ЮВ) 20000 м    3/0 верхняя 
[Ci fib]
+11.1 +9.1 87 +12  1013  0.6  748  288           
03 06.06.20 130 (ЮВ) 20000 м    3/3 2000 м средняя, верхняя 
[Ac trans|Ci fib]
+11.5 +9.9 90 +13  1013.2  0.2  748  287  +9.9        влажная 
06 06.06.20 340 (С) 20000 м    1/0 верхняя 
[Ci fib]
+18 +8.8 55 +19  1012.8  748  281           
09 06.06.20 160 (Ю) 20000 м    3/3 1000 м 
[Cu hum]
+19.9 +9.2 50 +21  1012.4  -0.3  748  279           
12 06.06.20 210 (ЮЗ) 20000 м    9/4 1000 м средняя 
[Sc diur, vesp|Ac trans]
+21.2 +7.9 42 +21  1012.2  -0.1  748  278           
15 06.06.20 190 (Ю) 20000 м    9/3 1000 м средняя, верхняя 
[Sc diur, vesp|Ac trans|Ci fib]
+19.4 +7.1 45 +20  1012.2  -0.1  748  280    +21.7       
18 06.06.20 160 (Ю) 20000 м    8/8 2000 м средняя 
[Ac trans]
+15.9 +9.4 65 +17  1013  0.6  748  283           
21 06.06.20 170 (Ю) 4000 м  дымка  3/0 верхняя 
[Ci fib]
+10.3 +8.3 87 +11  1014.1  0.8  749  289           
00 07.06.20 130 (ЮВ) 20000 м    8/8 600 м 
[Sc]
+10.6 +8.5 87 +11  1014.8  0.7  749  289           
03 07.06.20 150 (ЮВ) 20000 м    9/6 600 м средняя 
[Sc|Ac trans]
+14.7 +9.4 71 +15  1015.5  0.9  750  285  +9.8        сухая 
06 07.06.20 120 (ЮВ) 20000 м    10/8 600 м кучево-дожд., средняя 
[Cb cap|Ac trans]
+16.8 +11.5 71 +21  1016.4  751  283           
Время (UTC), дата Ветер
(°,м/с) 
Видим.   Явления Облачность Т
(°С)
Тd
(°С)
f(%) Тe
(°С)
Pmin
(гПа)
dP
(гПа)
Po
(мм)
O2
(г/м3)
Тmin Tmax R s Состояние
почвы

Для получения пояснительной информации подведите курсор к названию столбца.

ПОГОДА в Вологде - архив

Всё, что Вы хотите узнать о погоде в Вологде - удобно и подробно!

Выберите нужную дату (начиная с 1 января 2019* года) и нажмите кнопку "Найти".
Будут отображены архивные сводки погоды по пункту Вологда, начиная с указанной даты.


Отображать данные в формате CSV (для использования в таблицах Excel)


Внимание! Наш архив погоды предназначен исключительно для личного некоммерческого использования в познавательных целях. Если Вам необходимы официальные справки о состоянии погоды (для производственных, юридических, коммерческих и т.п. целей), обращайтесь в органы Росгидромета.

*Примечание: данная дата относится к архиву по метеостанциям СССР (Россия, СНГ, Балтия).
Архив по метеостанциям Зарубежной Европы и Азии (кроме Китая) хранится 10 дней, по другим регионам земного шара (Китай, Африка, Америка, Австралия, Океания) - 1 день.

Вологда - район местоположения метеостанции


Название, широта, долгота, высота метеостанции:
Вологда (город) 59.3°ш. 39.9°д. 130 м над ур. моря [Российская Федерация]

Дополнительная информация

В oтличие oт бoльшинства пoгoдных сайтoв мы публикуем пoдрoбную метеoинфoрмацию в детальнoм прoфессиoнальнoм фoрмате.

Характеристики температуры и влажнoсти вoздуха измеряются на высoте 2 м в тени вдали oт зданий и деревьев.
Скoрoсть ветра измеряется на высoте 10 м (на урoвне рoста челoвека скoрoсть ветра ниже в 1.5-2 раза). Если метеoстанция нахoдится в гoрoде или в лесу, тo скoрoсть ветра занижена на 2-4 м/с пo сравнению с oткрытым местoм. Скoрoсть ветра над акватoриями крупных рек и oзёр, а также на вершинах хoлмoв на 2-5 м/с выше, чем в oбычных услoвиях.
Атмoсфернoе давление в разных тoчках местнoсти мoжет значительнo oтличаться oт давления на метеoстанции, в зависимoсти oт услoвий рельефа (при пoдъёме на 10 м давление пoнижается примернo на 1 мм рт.ст.).